Погода в Бонгао

Филиппины     5°08′25″N   119°53′33″E
темп.,
°C
ветер,
м/с
пор.,
м/с
влажн.,
%
обл.,
%
осадки,
мм/ч
давл.,
гПа
погр.,
м
18 апреля, вс
вс1823:00+28сз5881100 0.2 1011696
02:00+28сз587984 0.4 1009723
05:00+28сз6979100 0.1 1009889
08:00+29сз6976100 0.2 10111081
11:00+28зсз677860 0.2 1010862
14:00+29зюз5771100 1.6 1008915
17:00+27юз3584100 3.4 1008368
20:00+26юз3485100 3.7 1010370
19 апреля, пн
пн1923:00+26юз348895 1.1 1010196
02:00+26зюз3584100 2.7 1009356
05:00+26ююз2481100 0.0 1008375
08:00+28ююз3679100 0.0 1009525
11:00+30юз4565100 0.0 10091045
14:00+29зюз347477 0.8 1007605
17:00+28з2372100 1.5 1008642
20:00+27з0175100 1.6 1010211
20 апреля, вт
вт2023:00+26в0078100 0.0 1010110
02:00+26ююв1181100 0.0 100788
05:00+26юв1182100 0.0 100880
08:00+27ю1277100 0.0 1010232
11:00+30зюз2365100 0.0 1010920
14:00+30з236459 0.0 1007915
17:00+29сз327184 0.1 1008542
20:00+27ссв227876 0.2 1010335
21 апреля, ср
ср2123:00+27св2378100 0.0 1011341
02:00+27с1278100 0.0 1009362
05:00+27сз1279100 0.0 1009426
08:00+28ююв2274100 0.0 1011355
11:00+30ю3465100 0.0 10111007
14:00+30ююз3463100 0.0 10081093
17:00+29ю3471100 0.0 1008562
20:00+27юв1279100 0.0 1010111
22 апреля, чт
чт2223:00+27ююв128281 0.0 1010115
02:00+26зсз1183100 0.0 1008178
05:00+26зюз0185100 0.2 100838
08:00+27сз2281100 2.2 1011132
11:00+29сз2268100 0.4 1010825
14:00+30з226558 0.5 1007890
17:00+29всв0167100 0.1 1007584
20:00+27юв1279100 0.1 1009128